Вернуться в каталог

FALCON HEAVY R/B

АктивенGEO
NORAD 54221·ROCKET BODY·🇺🇸 United States

Запущен Nov 1, 2022 с Cape Canaveral Space Force Station

Loading…

TLE

СвежийSource: Space-Track

Эпоха: Sep 14, 2026, 00:35 UTC

1 54221U 22144C   26257.02470974 -.00000012  00000-0  00000-0 0  9996
2 54221   6.1961  62.4063 0056073 217.4043 142.3998  0.98105358 12437

Отслеживайте FALCON HEAVY R/B в реальном времени с AllMySat

Download on the App Store